Home > Weather > Barnaul > Past weeks

Flag for Russia Weather for the Past 2 Weeks in Barnaul, Russia

Now
7 °F

Clear.


Feels Like: -11 °F
Forecast: 10 / 15 °F
Wind: 15 mph from Southwest

Location: Barnaul Airport

Current Time: Feb 11, 2016 at 7:14:14 PM

Latest Report: Feb 11, 2016 at 6:30 PM


Visibility: 10 mi

Pressure: 30.63 "Hg

Humidity: 78%

Dew point: 1 °F

Location of BarnaulLocation

Historic Weather in Barnaul — Graph

°F

Barnaul Temperature Yesterday

Maximum temperature yesterday: 7 °F (at 12:00 AM)
Minimum temperature yesterday: 0 °F (at 8:00 AM)
Average temperature yesterday: 2 °F

High & Low Weather Summary for the Past Weeks

 TemperatureHumidityPressure
High32 °F (Feb 6, 1:00 AM)93% (Feb 5, 8:30 AM)30.72 "Hg (Feb 5, 8:30 AM)
Low-8 °F (Jan 28, 8:00 AM)45% (Jan 31, 2:30 PM)29.59 "Hg (Feb 8, 6:00 AM)
Average14 °F74%30.31 "Hg
* Reported Jan 27 6:00 PM — Feb 11 6:00 PM, Barnaul, Weather by CustomWeather, © 2016

Note: Actual official high and low records may vary slightly from our data, if they occured in-between our weather recording intervals... More about our weather records

Advertising

Barnaul Weather History for the Previous 24 Hours

 ConditionsComfort  
Time TempWeatherWind HumidityBarometerVisibility
6:00 PM
Thu, Feb 11
7 °FClear.15 mph78%30.63 "Hg10 mi
5:30 PM7 °FPassing clouds.13 mph78%30.63 "HgN/A
5:00 PM7 °FScattered clouds.13 mph78%30.63 "HgN/A
4:30 PM7 °FScattered clouds.13 mph78%30.66 "HgN/A
4:00 PM9 °FScattered clouds.13 mph72%30.66 "HgN/A
3:30 PM9 °FScattered clouds.13 mph72%30.66 "HgN/A
3:00 PM7 °FScattered clouds.13 mph72%30.69 "HgN/A
2:30 PM7 °FScattered clouds.15 mph72%30.69 "HgN/A
2:00 PM7 °FPartly sunny.13 mph72%30.69 "HgN/A
1:30 PM7 °FPartly sunny.10 mph72%30.69 "HgN/A
1:00 PM7 °FPartly sunny.10 mph72%30.69 "HgN/A
12:30 PM5 °FPartly sunny.8 mph78%30.69 "HgN/A
12:00 PM5 °FBroken clouds.8 mph72%30.72 "HgN/A
11:30 AM3 °FBroken clouds.10 mph78%30.69 "HgN/A
11:00 AM3 °FPartly sunny.13 mph78%30.69 "HgN/A
10:30 AM1 °FPartly sunny.13 mph78%30.69 "HgN/A
10:00 AM0 °FLight snow. Broken clouds.10 mph78%30.69 "HgN/A
9:30 AM0 °FLight snow. More clouds than sun.10 mph84%30.69 "Hg6 mi
9:00 AM0 °FLight snow. More clouds than sun.13 mph78%30.69 "Hg4 mi
8:00 AM0 °FLight snow. More clouds than sun.10 mph78%30.69 "Hg3 mi
7:30 AM0 °FLight snow. Partly cloudy.13 mph78%30.69 "Hg5 mi
7:00 AM0 °FLight snow. Partly cloudy.15 mph78%30.69 "Hg6 mi
6:30 AM0 °FLight snow. Passing clouds.13 mph78%30.69 "Hg6 mi
6:00 AM0 °FLight snow. Partly cloudy.15 mph84%30.69 "Hg3 mi
5:30 AM0 °FLight snow. Partly cloudy.13 mph78%30.69 "Hg6 mi
5:00 AM0 °FLight snow. Partly cloudy.10 mph78%30.69 "Hg4 mi
4:30 AM0 °FLight snow. Partly cloudy.8 mph78%30.66 "Hg4 mi
4:00 AM0 °FLight snow. Mostly cloudy.10 mph78%30.66 "Hg6 mi
3:30 AM0 °FLight snow. Mostly cloudy.10 mph78%30.66 "Hg3 mi
3:00 AM0 °FLight snow. Mostly cloudy.13 mph78%30.66 "Hg3 mi
2:30 AM0 °FLight snow. Mostly cloudy.13 mph78%30.66 "Hg4 mi
2:00 AM0 °FLight snow. Mostly cloudy.13 mph78%30.66 "HgN/A
1:30 AM0 °FLight snow. Low clouds.10 mph84%30.66 "HgN/A
1:00 AM0 °FLight snow. Low clouds.10 mph84%30.66 "HgN/A
12:30 AM0 °FLight snow. Passing clouds.10 mph84%30.63 "Hg6 mi
12:00 AM0 °FLight snow. Passing clouds.10 mph84%30.63 "HgN/A
11:30 PM
Wed, Feb 10
0 °FLight snow. Partly cloudy.10 mph78%30.63 "HgN/A
11:00 PM0 °FLight snow. Partly cloudy.10 mph84%30.60 "HgN/A
10:30 PM1 °FLight snow. Partly cloudy.13 mph78%30.60 "HgN/A
10:00 PM0 °FLight snow. Partly cloudy.13 mph84%30.60 "HgN/A
9:30 PM0 °FLight snow. Passing clouds.13 mph84%30.60 "HgN/A
9:00 PM1 °FPassing clouds.13 mph78%30.57 "HgN/A
8:30 PM1 °FPassing clouds.10 mph78%30.57 "HgN/A
8:00 PM1 °FPartly cloudy.13 mph78%30.57 "HgN/A
7:30 PM1 °FPartly cloudy.10 mph78%30.54 "HgN/A
7:00 PM1 °FPartly cloudy.10 mph78%30.54 "HgN/A
Weather by CustomWeather, © 2016

See weather overviewHow to use our weather pages